Wind_Speed
43 43 44 45 45 46 46 47 47 47 47 46 46 46 47 48 48 48 48 49 51 51 52 53 55 56 58 60 61 62 62 63 63 65 65 66 67 67 66 64 63 63 63
43 44 45 46 46 46 47 47 47 47 47 47 47 48 48 49 49 49 50 51 52 52 54 56 57 58 59 60 61 61 61 62 62 62 63 63 62 62 60 58 57 57 57
43 43 44 45 44 44 45 45 46 46 47 46 46 46 47 48 49 50 51 52 52 54 55 56 57 57 58 58 59 59 59 58 57 57 57 56 55 55 54 53 53 51 51
42 42 42 42 43 43 43 44 44 45 45 45 46 47 48 49 50 51 51 51 53 54 54 55 56 56 56 55 55 54 53 53 51 50 50 48 48 47 47 46 45 44 43
38 39 39 40 41 42 42 42 43 44 44 45 46 48 48 48 49 50 51 51 52 52 52 53 53 52 51 50 48 47 46 45 44 43 43 42 41 40 39 38 37 36 35
37 37 37 38 39 40 40 41 41 43 44 45 45 46 46 47 47 48 49 50 50 50 50 49 49 48 46 44 42 41 39 38 37 36 35 34 33 32 31 31 30 30 30
33 33 34 35 36 37 38 39 40 40 41 42 43 44 44 45 46 47 47 47 47 47 46 45 44 43 41 39 37 35 32 31 29 28 28 27 26 26 26 26 26 26 26
30 31 32 33 34 35 36 37 37 38 39 40 41 42 42 43 43 44 44 44 43 43 41 40 38 36 33 31 29 26 24 23 23 22 22 22 22 22 22 23 23 23 23
29 29 30 31 32 33 34 35 35 36 36 37 38 39 40 40 41 41 40 39 38 36 33 30 27 25 23 21 19 18 18 18 18 18 18 18 19 19 19 20 20 20 20
27 28 29 29 30 31 32 33 33 34 34 35 35 36 36 36 35 35 33 31 29 25 22 19 17 16 15 14 14 14 14 14 14 14 15 15 15 16 16 17 17 18 19
25 26 26 27 28 28 29 28 29 29 30 30 31 31 31 29 28 27 25 22 20 17 14 13 12 11 11 10 11 11 11 11 12 12 13 13 14 15 16 17 18 19 20
24 24 25 24 24 24 24 24 24 25 25 26 26 25 24 23 22 20 18 16 14 11 10 10 9 9 9 9 10 10 11 11 11 12 13 14 15 16 16 17 18 19 20
22 22 22 22 21 20 20 21 21 22 22 22 22 21 19 18 17 16 14 12 10 8 8 7 8 8 9 10 10 10 11 11 12 12 13 14 16 17 18 19 20 20 20
21 21 20 19 18 18 19 18 19 19 19 19 18 17 16 15 14 12 10 8 7 7 7 8 8 9 10 10 11 11 12 12 12 13 14 15 16 16 17 18 19 20 20
18 18 17 17 16 16 16 16 17 16 16 16 14 14 13 12 11 9 8 7 7 7 7 8 8 9 9 10 10 11 11 12 12 12 13 14 15 16 17 18 19 19 19
17 16 15 14 14 14 14 14 14 14 14 13 12 12 11 10 9 8 7 7 7 7 8 8 9 9 9 9 10 10 11 11 12 12 13 14 15 16 17 17 18 18 18
14 13 13 12 11 11 12 12 12 11 11 11 10 10 9 8 7 6 6 6 6 7 8 8 9 9 9 10 10 10 11 12 12 13 14 15 16 16 17 17 17 18 17
11 10 9 9 9 9 10 10 10 9 9 9 9 8 8 7 6 5 5 6 6 7 7 8 8 9 9 10 11 11 12 13 13 14 15 16 16 16 16 16 17 17 16
9 8 8 7 7 7 8 8 8 8 8 8 7 7 6 5 5 5 5 6 6 6 7 8 8 9 9 10 11 12 13 13 14 15 15 16 16 17 16 16 16 16 16
8 7 6 6 6 6 7 7 7 7 6 6 6 5 5 5 5 5 5 6 6 6 7 8 8 9 10 11 12 13 14 14 15 15 16 16 16 17 16 16 16 16 16
7 6 5 5 5 5 6 6 6 6 6 5 4 4 5 5 5 5 6 6 6 7 7 8 9 9 10 12 12 13 14 15 15 16 16 16 17 16 16 16 16 16 16
6 5 4 4 4 4 4 5 5 5 5 4 4 4 4 5 5 5 6 6 6 7 8 8 9 10 11 12 13 14 15 15 16 16 16 17 16 16 16 16 16 15 16
5 4 4 4 3 3 4 4 4 4 4 4 4 4 4 4 5 5 6 6 7 7 8 9 10 11 12 13 14 14 15 16 16 16 16 16 16 16 16 15 15 15 15
6 5 4 4 4 3 4 4 4 4 4 4 4 4 4 5 5 5 6 6 7 8 8 9 10 11 12 13 14 15 16 16 16 16 16 16 16 15 15 15 15 15 15
9 8 7 6 5 4 4 4 4 4 4 4 5 5 5 5 5 6 6 7 7 8 9 10 11 12 13 14 15 16 16 17 17 17 16 16 16 15 15 15 15 15 15
10 9 8 7 7 6 6 5 5 5 5 5 5 5 6 6 6 7 7 8 8 9 10 11 12 12 13 14 15 16 16 17 17 17 17 17 17 16 16 16 16 16 16
Wind_Direction
277 278 280 282 283 284 284 284 284 284 284 284 284 283 282 282 282 282 281 282 283 283 283 283 284 284 284 283 283 283 282 282 282 282 282 281 281 282 283 283 283 282 283
276 277 279 280 281 281 281 282 282 283 284 284 282 281 280 280 281 282 282 283 283 284 285 286 285 285 284 283 283 283 282 283 283 282 282 282 282 283 284 284 284 284 285
276 277 278 278 279 279 279 279 280 281 282 282 282 281 282 283 283 283 283 284 285 286 287 287 286 286 285 285 284 285 285 284 285 285 285 285 285 285 285 286 286 286 286
275 275 275 276 276 276 276 277 278 280 281 281 281 282 283 284 285 285 286 285 286 287 287 287 287 287 286 287 287 288 288 288 289 288 288 288 288 288 288 288 288 288 288
272 272 273 275 276 276 277 278 279 280 281 282 284 285 286 287 287 288 289 289 289 289 290 289 289 289 289 289 290 291 291 292 292 292 292 292 292 292 292 292 292 292 291
273 274 275 276 277 277 278 279 281 282 283 285 287 287 288 289 290 291 291 291 291 292 292 292 292 292 292 292 294 294 295 295 295 295 295 296 297 297 297 296 295 294 293
275 276 277 278 279 281 283 284 286 287 288 290 291 292 292 293 294 295 296 296 296 296 295 295 295 294 293 294 295 296 296 297 297 299 300 300 301 300 300 300 299 298 298
278 279 281 282 284 286 288 289 290 291 293 293 294 296 296 297 298 299 299 299 298 298 297 296 295 294 294 295 297 298 299 300 302 304 304 305 306 306 305 305 305 305 305
282 284 285 287 288 290 292 294 294 295 296 298 298 299 300 300 300 301 301 301 300 300 300 299 298 298 298 300 302 304 306 308 309 311 313 314 313 313 312 311 312 312 312
288 289 290 292 293 295 296 297 297 298 299 300 301 302 303 303 305 306 307 307 306 307 308 308 309 310 311 313 315 318 320 322 324 326 327 327 325 325 325 325 324 323 321
290 291 293 296 297 299 300 301 302 303 304 305 306 307 309 310 312 314 315 314 313 314 317 321 323 326 330 332 333 335 338 340 342 343 344 343 342 341 340 338 335 333 331
291 294 296 299 301 304 305 307 308 309 311 311 312 314 316 318 320 322 323 324 324 327 332 335 339 346 353 355 354 357 359 360 1 359 356 353 352 352 351 349 345 341 338
292 294 297 300 303 306 309 310 312 313 315 316 318 321 325 328 329 330 332 336 342 350 355 0 5 10 11 9 8 10 10 9 7 4 1 358 356 355 354 353 350 349 348
293 295 297 300 304 307 311 314 316 318 320 323 326 328 332 334 336 339 347 358 8 15 23 25 23 22 21 19 18 16 14 11 8 6 2 359 357 356 355 354 353 353 352
295 294 295 300 304 307 312 316 318 321 325 329 331 334 338 341 345 353 6 19 28 34 35 35 33 32 28 22 19 17 13 8 6 5 2 360 359 358 358 357 356 355 355
296 295 296 300 303 307 313 318 322 324 330 335 338 341 347 352 2 15 25 32 36 38 37 36 33 30 28 22 15 15 14 12 11 9 6 3 2 2 1 1 0 1 2
301 297 297 300 303 308 315 320 324 328 334 340 344 348 354 1 12 25 34 38 40 39 36 32 29 28 26 22 20 20 17 15 14 12 9 6 5 4 5 5 6 7 8
310 304 302 302 305 310 318 324 328 332 337 343 348 353 0 10 23 35 38 40 40 37 31 28 27 27 25 23 22 19 16 15 15 12 9 8 8 8 9 10 11 13 15
316 313 311 309 310 315 323 329 334 339 342 349 356 4 13 25 36 41 42 40 38 35 31 28 26 25 23 21 19 16 15 14 13 12 12 12 12 13 14 15 16 18 21
317 316 316 316 316 321 327 334 340 346 351 355 5 16 29 40 43 44 41 39 37 35 30 27 25 22 20 17 15 15 15 14 13 14 14 14 15 16 17 19 21 24 27
322 322 321 321 324 328 333 340 348 356 3 8 18 32 43 46 45 42 38 36 34 33 32 28 24 22 20 16 15 15 15 15 16 16 16 17 17 18 21 24 27 29 31
336 339 339 336 339 343 349 355 1 5 11 20 32 43 48 47 43 39 37 37 38 38 33 28 25 22 18 17 17 16 16 16 16 17 18 19 20 22 24 27 30 32 34
355 358 1 360 1 4 7 9 12 17 24 33 39 45 48 47 43 41 41 42 41 36 31 28 25 22 21 20 19 17 16 16 16 17 19 20 22 24 26 29 32 35 37
29 29 27 27 26 23 19 19 24 28 36 45 47 50 51 50 47 46 47 46 43 38 34 30 27 25 24 22 20 18 18 18 19 20 22 23 25 26 28 32 35 38 40
44 44 44 45 43 39 35 35 38 42 49 57 58 60 60 58 55 53 52 51 46 41 36 33 30 27 25 24 22 21 22 23 24 25 26 28 29 30 32 35 39 41 44
44 45 46 47 48 48 50 53 57 60 63 66 68 67 65 63 61 61 60 55 49 44 39 35 31 29 27 25 24 25 27 28 30 31 32 33 35 37 38 41 43 46 49
Height
5804 5803 5801 5799 5797 5795 5793 5791 5788 5786 5783 5781 5778 5776 5773 5771 5768 5765 5762 5759 5756 5752 5749 5745 5741 5736 5732 5727 5722 5717 5712 5707 5702 5696 5690 5686 5682 5677 5673 5669 5665 5662 5658
5794 5793 5791 5789 5787 5785 5783 5780 5778 5775 5772 5770 5767 5764 5761 5758 5755 5752 5749 5746 5742 5738 5734 5729 5725 5720 5715 5710 5705 5699 5694 5689 5684 5678 5672 5667 5663 5659 5656 5652 5649 5646 5642
5784 5783 5781 5779 5776 5774 5772 5770 5767 5764 5761 5758 5756 5752 5749 5745 5742 5739 5735 5732 5727 5723 5718 5714 5709 5703 5698 5693 5687 5682 5677 5672 5666 5661 5656 5651 5647 5644 5641 5638 5634 5631 5627
5774 5772 5770 5768 5766 5764 5762 5759 5756 5753 5750 5747 5744 5741 5737 5733 5730 5726 5722 5717 5713 5708 5704 5698 5693 5687 5682 5677 5671 5666 5661 5656 5651 5646 5642 5637 5634 5630 5627 5624 5622 5618 5615
5763 5761 5759 5757 5755 5753 5751 5748 5745 5743 5739 5736 5732 5729 5725 5721 5717 5713 5708 5704 5699 5694 5688 5683 5678 5672 5667 5662 5657 5653 5648 5643 5638 5634 5630 5626 5623 5619 5616 5613 5610 5608 5605
5753 5751 5749 5747 5745 5742 5740 5737 5734 5731 5728 5725 5721 5717 5713 5709 5704 5699 5695 5690 5684 5679 5674 5668 5663 5659 5654 5650 5645 5641 5637 5632 5628 5624 5620 5617 5613 5610 5607 5604 5602 5599 5597
5743 5741 5739 5737 5735 5733 5730 5727 5724 5721 5718 5714 5710 5706 5701 5697 5692 5687 5681 5676 5670 5665 5660 5655 5650 5646 5642 5638 5634 5631 5627 5624 5620 5616 5613 5610 5607 5603 5601 5598 5595 5592 5590
5734 5733 5731 5729 5726 5723 5721 5718 5715 5711 5708 5704 5699 5695 5690 5685 5680 5675 5670 5664 5658 5653 5648 5643 5639 5635 5632 5628 5625 5623 5620 5617 5614 5611 5608 5605 5601 5598 5596 5593 5590 5587 5584
5726 5724 5722 5720 5718 5715 5712 5709 5705 5702 5698 5694 5689 5685 5680 5675 5670 5664 5659 5653 5648 5642 5637 5633 5630 5627 5624 5621 5619 5617 5615 5612 5610 5607 5604 5601 5598 5595 5592 5589 5586 5583 5580
5719 5717 5715 5712 5710 5707 5704 5701 5697 5693 5689 5685 5680 5676 5670 5665 5660 5654 5648 5643 5638 5634 5630 5627 5624 5622 5620 5617 5616 5614 5611 5609 5607 5604 5602 5599 5596 5593 5590 5587 5583 5580 5577
5712 5710 5708 5705 5703 5700 5696 5693 5689 5685 5681 5677 5672 5667 5662 5657 5651 5646 5641 5637 5633 5629 5627 5624 5622 5620 5618 5615 5614 5612 5610 5607 5605 5603 5601 5598 5596 5592 5589 5585 5581 5578 5574
5705 5703 5701 5698 5696 5693 5689 5686 5682 5679 5675 5670 5666 5661 5656 5651 5646 5642 5637 5633 5630 5627 5625 5623 5621 5619 5617 5615 5613 5611 5609 5607 5605 5603 5600 5598 5595 5591 5588 5584 5580 5576 5571
5699 5697 5694 5692 5689 5686 5684 5680 5677 5673 5669 5665 5660 5656 5652 5647 5643 5639 5635 5632 5629 5627 5625 5623 5621 5619 5618 5616 5614 5612 5609 5607 5605 5603 5601 5598 5594 5591 5587 5583 5579 5574 5569
5693 5690 5688 5686 5684 5681 5678 5675 5672 5669 5665 5661 5656 5653 5649 5645 5641 5638 5635 5632 5630 5627 5626 5624 5622 5620 5619 5617 5615 5613 5611 5608 5606 5603 5600 5597 5594 5591 5587 5582 5578 5573 5568
5687 5685 5683 5681 5679 5677 5674 5671 5668 5665 5662 5658 5654 5651 5648 5644 5641 5637 5634 5632 5630 5629 5627 5625 5624 5622 5620 5618 5616 5614 5612 5609 5607 5604 5601 5597 5594 5590 5586 5582 5577 5573 5568
5681 5679 5678 5676 5674 5673 5671 5668 5665 5662 5659 5656 5653 5650 5647 5644 5641 5638 5636 5634 5632 5631 5629 5627 5625 5623 5622 5620 5617 5615 5612 5610 5607 5604 5601 5597 5594 5590 5585 5581 5577 5572 5568
5676 5675 5673 5672 5671 5669 5668 5665 5663 5660 5657 5655 5652 5649 5647 5644 5642 5640 5638 5636 5634 5632 5631 5629 5627 5625 5623 5621 5618 5616 5613 5610 5607 5604 5601 5597 5593 5589 5585 5581 5577 5572 5568
5673 5671 5670 5669 5668 5667 5665 5663 5661 5658 5656 5654 5651 5649 5647 5644 5643 5641 5639 5637 5636 5634 5632 5630 5628 5626 5624 5622 5619 5617 5614 5611 5608 5604 5601 5597 5593 5589 5585 5581 5577 5573 5569
5670 5669 5668 5667 5666 5664 5663 5661 5659 5657 5655 5653 5651 5649 5647 5645 5643 5642 5640 5639 5637 5635 5633 5631 5630 5627 5625 5623 5620 5617 5614 5611 5608 5605 5601 5597 5593 5589 5585 5581 5578 5574 5570
5668 5667 5666 5665 5664 5663 5661 5660 5658 5656 5654 5652 5651 5649 5647 5646 5644 5643 5641 5640 5638 5636 5635 5633 5631 5629 5626 5624 5621 5618 5615 5612 5608 5605 5601 5597 5594 5590 5586 5582 5579 5575 5571
5665 5664 5664 5663 5662 5661 5660 5659 5657 5655 5654 5652 5651 5649 5648 5647 5645 5644 5643 5641 5640 5638 5636 5634 5632 5630 5627 5625 5622 5619 5616 5613 5609 5606 5602 5598 5594 5591 5587 5583 5580 5576 5573
5664 5663 5662 5662 5661 5660 5659 5658 5657 5655 5654 5653 5651 5650 5649 5648 5647 5645 5644 5643 5641 5639 5637 5635 5633 5631 5628 5626 5623 5620 5617 5613 5610 5606 5603 5599 5595 5592 5588 5585 5581 5578 5575
5663 5662 5662 5661 5660 5660 5659 5658 5657 5655 5654 5653 5652 5651 5650 5649 5648 5647 5645 5644 5642 5641 5639 5637 5634 5632 5629 5626 5624 5621 5617 5614 5611 5607 5603 5600 5597 5593 5590 5587 5583 5580 5577
5663 5662 5662 5661 5660 5660 5659 5658 5657 5656 5655 5654 5653 5652 5651 5650 5649 5648 5647 5645 5644 5642 5640 5638 5636 5633 5631 5628 5625 5622 5618 5615 5611 5608 5605 5601 5598 5595 5592 5588 5585 5582 5580
5665 5664 5663 5662 5661 5660 5659 5658 5658 5657 5656 5655 5654 5653 5652 5651 5650 5649 5648 5647 5645 5644 5642 5640 5637 5635 5632 5630 5627 5623 5620 5617 5613 5610 5606 5603 5600 5597 5594 5590 5588 5585 5582
5667 5666 5665 5663 5662 5661 5660 5660 5659 5658 5657 5656 5656 5655 5654 5653 5652 5651 5650 5648 5647 5645 5643 5641 5639 5637 5634 5631 5628 5625 5622 5619 5616 5612 5609 5605 5602 5599 5596 5593 5590 5588 5585